User: anonymous   Login
Location: Unspecified
(0.0000°N, 0.0000°E)
Time: 02:03:16
(UTC+00:00)
Language:

STARLINK-35361 - Orbit

View from above orbital plane
View from above orbital plane
View from above satellite
View from above satellite

Ground track
Ground track

The orbit is defined by the following mean orbital elements,

1 65667U          26145.57581054 +.00000000 +00000-0 +15863-3 0 00002
2 65667  97.4491 189.5173 0002270 117.7717 242.3740 15.05655875    01
Epoch (UTC): 25 May 2026 13:49:10
Eccentricity: 0.0002270
inclination: 97.4491°
perigee height: 548 km
apogee height: 551 km
right ascension of ascending node: 189.5173°
argument of perigee: 117.7717°
revolutions per day: 15.05655875
mean anomaly at epoch: 242.3740°

The dashed part of the orbit path shows where the satellite is in the earth's shadow,  

DLR